Location: Béaulencourt
(50.0796°N, 2.8795°E)
Time: 13:18:36
(UTC+00:00)

Dummy Sat-02 - Pass Details

Date: 28 April 2026
Orbit: 472 x 483 km, 86.3° (Epoch: 12 May)

Event Time Altitude Azimuth Distance (km) Brightness Sun altitude
Rises 20:27:01 0° 210° (SSW) 2,521 8.1 -12.2°
Reaches altitude 10° 20:29:20 10° 224° (SW) 1,646 7.3 -12.5°
Maximum altitude 20:32:24 26° 282° (WNW) 975 6.8 -12.9°
Drops below altitude 10° 20:35:28 10° 341° (NNW) 1,654 8.3 -13.2°
Sets 20:37:48 0° 355° (N) 2,536 9.0 -13.5°
